College Station, TX

11:13 AM CDT on May 22, 2018 (GMT -0500)
Easterwood

Weather History for KCLL - September, 2011

Change the Weather History Date:

Thursday, September 8, 2011

  Actual Average Record
Temperature  
Mean Temperature 79 °F 82 °F  
Max Temperature 94 °F 93 °F 101 °F (1912)
Min Temperature 64 °F 72 °F 57 °F (1950)
Degree Days  
Heating Degree Days 0 0  
Month to date heating degree days 0 0  
Since 1 July heating degree days 0 0  
Cooling Degree Days 14 17  
Month to date cooling degree days 154 144  
Year to date cooling degree days 3301 2490  
Growing Degree Days 28 (Base 50)    
Moisture  
Dew Point 38 °F    
Average Humidity 28    
Maximum Humidity 43    
Minimum Humidity 12    
Precipitation  
Precipitation 0.00 in 0.11 in 2.35 in (1962)
Month to date precipitation 0.00 0.88  
Year to date precipitation 10.92 26.40  
Sea Level Pressure  
Sea Level Pressure 30.04 in    
Wind  
Wind Speed 5 mph (North)    
Max Wind Speed 16 mph    
Max Gust Speed 21 mph    
Visibility 10 miles    
Events      
T = Trace of Precipitation, MM = Missing Value Source: NWS Daily Summary

Daily Weather History Graph

Daily Weather History Graph

Search for Another Location

Airport or City:

Astronomy

Sep. 08, 2011 Rise Set
Actual Time 7:05 AM CDT 7:40 PM CDT
Civil Twilight 6:41 AM CDT 8:04 PM CDT
Nautical Twilight 6:12 AM CDT 8:32 PM CDT
Astronomical Twilight 5:43 AM CDT 9:01 PM CDT
Moon 5:24 PM CDT (9/8) 3:38 AM CDT (9/8)
Length of Visible Light 13h 22m
Length of Day
12h 34m
Waxing Gibbous, 87% of the Moon is Illuminated
Sep 8
Waxing Gibbous
Sep 12
Full
Sep 20
Last Quarter
Sep 27
New
Oct 3
First Quarter

Hourly Weather History & Observations

Time (CDT) Temp. Dew Point Humidity Pressure Visibility Wind Dir Wind Speed Gust Speed Precip Events Conditions
12:53 AM 75.9 °F 36.0 °F 23% 30.06 in 10.0 mi ENE 6.9 mph - N/A   Clear
1:53 AM 73.0 °F 37.9 °F 28% 30.06 in 10.0 mi East 3.5 mph - N/A   Clear
2:53 AM 68.0 °F 39.9 °F 36% 30.06 in 10.0 mi ENE 3.5 mph - N/A   Clear
3:53 AM 66.0 °F 43.0 °F 43% 30.07 in 10.0 mi Calm Calm - N/A   Clear
4:53 AM 64.9 °F 41.0 °F 42% 30.07 in 10.0 mi NNE 4.6 mph - N/A   Clear
5:53 AM 66.0 °F 39.9 °F 38% 30.08 in 10.0 mi NNE 4.6 mph - N/A   Clear
6:53 AM 64.9 °F 39.9 °F 40% 30.08 in 10.0 mi North 6.9 mph - N/A   Clear
7:53 AM 64.4 °F 41.0 °F 42% 30.11 in 10.0 mi Calm Calm - N/A   Clear
8:53 AM 70.0 °F 41.0 °F 35% 30.10 in 10.0 mi North 5.8 mph - N/A   Clear
9:53 AM 75.9 °F 42.1 °F 30% 30.10 in 9.0 mi Calm Calm - N/A   Clear
10:53 AM 80.1 °F 43.0 °F 27% 30.12 in 9.0 mi Calm Calm - N/A   Clear
11:53 AM 87.1 °F 39.9 °F 19% 30.09 in 6.0 mi North 5.8 mph - N/A   Haze
12:53 PM 89.1 °F 37.9 °F 16% 30.07 in 7.0 mi NNW 9.2 mph - N/A   Clear
1:53 PM 91.0 °F 37.0 °F 15% 30.04 in 10.0 mi Variable 4.6 mph - N/A   Clear
2:53 PM 91.9 °F 36.0 °F 14% 30.01 in 10.0 mi North 8.1 mph - N/A   Clear
3:53 PM 93.0 °F 36.0 °F 13% 29.97 in 10.0 mi NW 12.7 mph 17.3 mph N/A   Clear
4:53 PM 93.9 °F 34.0 °F 12% 29.95 in 10.0 mi NNE 10.4 mph - N/A   Clear
5:53 PM 91.9 °F 32.0 °F 12% 29.95 in 10.0 mi NNE 9.2 mph - N/A   Clear
6:53 PM 89.1 °F 30.9 °F 12% 29.95 in 10.0 mi North 8.1 mph - N/A   Clear
7:53 PM 82.0 °F 35.1 °F 18% 29.96 in 10.0 mi North 5.8 mph - N/A   Clear
8:53 PM 78.1 °F 33.1 °F 19% 29.97 in 10.0 mi North 5.8 mph - N/A   Clear
9:53 PM 75.9 °F 35.1 °F 23% 29.99 in 10.0 mi North 5.8 mph - N/A   Clear
10:53 PM 75.0 °F 37.0 °F 25% 30.00 in 10.0 mi North 5.8 mph - N/A   Clear
11:53 PM 73.0 °F 36.0 °F 26% 30.00 in 10.0 mi North 6.9 mph - N/A   Clear